When you browse on this site, cookies collect data to enhance your experience and personalize the content and advertising you see.
Visit our Privacy Policy to learn more. By continuing to use the site, you agree to this use of cookies and data.
  • In Hungary
  • List of Countries
  • For 7 days
  • Water Temperature
  • Satellite Maps
  • Weather Map
  • News
  • Weather Widgets
  • user-avatar
    Login

    Hourly Weather Walerianow

    Today, 24 May, Friday

    Time Temperature Precipitation Wind Pressure Humidity
    00:00 +13°C° 0.2 mm 3 mps 743 mmHg 95%
    01:00 +13°C° 0.2 mm 3 mps 743 mmHg 97%
    02:00 +14°C° 0 mm 2 mps 743 mmHg 98%
    03:00 +13°C° 0.2 mm 3 mps 743 mmHg 97%
    04:00 +13°C° 0.2 mm 3 mps 743 mmHg 97%
    05:00 +13°C° 0.2 mm 4 mps 743 mmHg 97%
    06:00 +13°C° 0.1 mm 4 mps 743 mmHg 96%
    07:00 +13°C° 0.1 mm 4 mps 743 mmHg 95%
    08:00 +13°C° 0 mm 3 mps 743 mmHg 94%
    09:00 +13°C° 0.1 mm 3 mps 743 mmHg 93%
    10:00 +14°C° 0.1 mm 3 mps 743 mmHg 91%
    11:00 +16°C° 0.1 mm 2 mps 743 mmHg 89%
    12:00 +16°C° 0 mm 3 mps 743 mmHg 86%
    13:00 +17°C° 0 mm 3 mps 743 mmHg 83%
    14:00 +18°C° 0 mm 3 mps 743 mmHg 80%
    15:00 +19°C° 0 mm 3 mps 743 mmHg 79%
    16:00 +19°C° 0 mm 3 mps 743 mmHg 79%
    17:00 +19°C° 0 mm 3 mps 742 mmHg 78%
    18:00 +18°C° 0.4 mm 3 mps 742 mmHg 82%
    19:00 +17°C° 0.4 mm 3 mps 742 mmHg 86%
    20:00 +16°C° 0.4 mm 2 mps 742 mmHg 89%
    21:00 +16°C° 0 mm 2 mps 742 mmHg 91%
    22:00 +15°C° 0 mm 2 mps 742 mmHg 93%
    23:00 +13°C° 0 mm 3 mps 742 mmHg 94%

    Tomorrow, 25 May, Saturday

    Time Temperature Precipitation Wind Pressure Humidity
    00:00 +13°C° 0 mm 3 mps 742 mmHg 95%
    01:00 +13°C° 0 mm 2 mps 742 mmHg 95%
    02:00 +13°C° 0 mm 2 mps 742 mmHg 95%
    03:00 +12°C° 0 mm 2 mps 742 mmHg 95%
    04:00 +12°C° 0 mm 2 mps 742 mmHg 95%
    05:00 +12°C° 0 mm 2 mps 742 mmHg 96%
    06:00 +13°C° 0 mm 2 mps 742 mmHg 92%
    07:00 +14°C° 0 mm 3 mps 742 mmHg 89%
    08:00 +16°C° 0 mm 3 mps 742 mmHg 86%
    09:00 +17°C° 0 mm 3 mps 742 mmHg 79%
    10:00 +19°C° 0 mm 4 mps 742 mmHg 73%
    11:00 +20°C° 0 mm 4 mps 742 mmHg 67%
    12:00 +21°C° 0 mm 4 mps 742 mmHg 63%
    13:00 +21°C° 0 mm 5 mps 742 mmHg 60%
    14:00 +22°C° 0 mm 5 mps 742 mmHg 57%
    15:00 +22°C° 0 mm 4 mps 742 mmHg 57%
    16:00 +22°C° 0 mm 4 mps 742 mmHg 57%
    17:00 +21°C° 0 mm 3 mps 741 mmHg 58%
    18:00 +20°C° 0.1 mm 3 mps 741 mmHg 66%
    19:00 +19°C° 0.1 mm 3 mps 742 mmHg 74%
    20:00 +17°C° 0.1 mm 2 mps 742 mmHg 82%
    21:00 +16°C° 0 mm 2 mps 742 mmHg 85%
    22:00 +15°C° 0 mm 2 mps 742 mmHg 88%
    23:00 +14°C° 0 mm 2 mps 742 mmHg 91%

    Day after tomorrow, 26 May, Sunday

    Time Temperature Precipitation Wind Pressure Humidity
    00:00 +13°C° 0 mm 2 mps 743 mmHg 91%
    01:00 +13°C° 0 mm 2 mps 743 mmHg 92%
    02:00 +12°C° 0 mm 2 mps 743 mmHg 93%
    03:00 +12°C° 0 mm 2 mps 743 mmHg 93%
    04:00 +12°C° 0 mm 2 mps 743 mmHg 93%
    05:00 +10°C° 0 mm 2 mps 743 mmHg 94%
    06:00 +13°C° 0 mm 2 mps 743 mmHg 89%
    07:00 +14°C° 0 mm 3 mps 743 mmHg 83%
    08:00 +16°C° 0 mm 3 mps 743 mmHg 78%
    09:00 +18°C° 0.1 mm 3 mps 743 mmHg 74%
    10:00 +19°C° 0.1 mm 3 mps 743 mmHg 70%
    11:00 +20°C° 0.1 mm 4 mps 743 mmHg 66%
    12:00 +20°C° 0.5 mm 4 mps 743 mmHg 67%
    13:00 +20°C° 0.5 mm 4 mps 743 mmHg 69%
    14:00 +21°C° 0.5 mm 4 mps 743 mmHg 71%
    15:00 +20°C° 0.6 mm 4 mps 742 mmHg 72%
    16:00 +20°C° 0.6 mm 4 mps 742 mmHg 73%
    17:00 +20°C° 0.6 mm 4 mps 742 mmHg 74%
    18:00 +19°C° 0.3 mm 3 mps 742 mmHg 78%
    19:00 +18°C° 0.3 mm 3 mps 742 mmHg 82%
    20:00 +17°C° 0.3 mm 2 mps 742 mmHg 85%
    21:00 +16°C° 0 mm 2 mps 742 mmHg 87%
    22:00 +15°C° 0 mm 2 mps 742 mmHg 88%
    23:00 +14°C° 0 mm 2 mps 743 mmHg 89%

    27 May, Monday

    Time Temperature Precipitation Wind Pressure Humidity
    00:00 +14°C° 0 mm 2 mps 743 mmHg 89%
    01:00 +13°C° 0 mm 2 mps 743 mmHg 89%
    02:00 +13°C° 0 mm 2 mps 743 mmHg 90%
    03:00 +13°C° 0 mm 2 mps 743 mmHg 90%
    04:00 +13°C° 0 mm 2 mps 743 mmHg 91%
    05:00 +13°C° 0 mm 2 mps 743 mmHg 91%
    06:00 +14°C° 0 mm 2 mps 743 mmHg 88%
    07:00 +16°C° 0 mm 2 mps 743 mmHg 84%
    08:00 +18°C° 0 mm 3 mps 744 mmHg 81%
    09:00 +19°C° 0.1 mm 3 mps 744 mmHg 76%
    10:00 +21°C° 0.1 mm 4 mps 743 mmHg 71%
    11:00 +22°C° 0.1 mm 4 mps 743 mmHg 66%
    12:00 +23°C° 0.1 mm 4 mps 743 mmHg 64%
    13:00 +23°C° 0.1 mm 4 mps 743 mmHg 62%
    14:00 +25°C° 0.1 mm 5 mps 742 mmHg 59%
    15:00 +25°C° 0 mm 4 mps 742 mmHg 61%
    16:00 +25°C° 0 mm 4 mps 742 mmHg 63%
    17:00 +25°C° 0 mm 4 mps 742 mmHg 65%
    18:00 +22°C° 0.1 mm 3 mps 742 mmHg 71%
    19:00 +21°C° 0.1 mm 3 mps 742 mmHg 77%
    20:00 +19°C° 0.1 mm 3 mps 742 mmHg 83%
    21:00 +19°C° 0.1 mm 2 mps 742 mmHg 86%
    22:00 +18°C° 0.1 mm 2 mps 742 mmHg 88%
    23:00 +19°C° 0.1 mm 1 mps 742 mmHg 90%

    28 May, Tuesday

    Time Temperature Precipitation Wind Pressure Humidity
    00:00 +18°C° 0 mm 1 mps 742 mmHg 90%
    01:00 +18°C° 0 mm 1 mps 742 mmHg 91%
    02:00 +16°C° 0 mm 1 mps 741 mmHg 91%
    03:00 +16°C° 0.3 mm 1 mps 741 mmHg 92%
    04:00 +16°C° 0.3 mm 2 mps 741 mmHg 93%
    05:00 +17°C° 0.3 mm 2 mps 740 mmHg 93%
    06:00 +17°C° 0.7 mm 2 mps 740 mmHg 93%
    07:00 +17°C° 0.7 mm 2 mps 740 mmHg 94%
    08:00 +18°C° 0.7 mm 3 mps 740 mmHg 94%
    09:00 +19°C° 0.6 mm 3 mps 739 mmHg 92%
    10:00 +20°C° 0.6 mm 3 mps 739 mmHg 90%
    11:00 +20°C° 0.6 mm 3 mps 739 mmHg 88%
    12:00 +22°C° 0.5 mm 3 mps 738 mmHg 81%
    13:00 +25°C° 0.5 mm 4 mps 738 mmHg 74%
    14:00 +26°C° 0.5 mm 4 mps 738 mmHg 67%
    15:00 +26°C° 1.5 mm 4 mps 737 mmHg 71%
    16:00 +25°C° 1.5 mm 4 mps 737 mmHg 74%
    17:00 +25°C° 1.5 mm 4 mps 737 mmHg 78%
    18:00 +22°C° 0.9 mm 4 mps 737 mmHg 82%
    19:00 +21°C° 0.9 mm 3 mps 737 mmHg 85%
    20:00 +20°C° 0.9 mm 3 mps 737 mmHg 89%
    21:00 +19°C° 0 mm 3 mps 737 mmHg 91%
    22:00 +18°C° 0 mm 3 mps 737 mmHg 92%
    23:00 +17°C° 0 mm 3 mps 737 mmHg 93%

    29 May, Wednesday

    Time Temperature Precipitation Wind Pressure Humidity
    00:00 +17°C° 0 mm 3 mps 737 mmHg 94%
    01:00 +16°C° 0 mm 3 mps 737 mmHg 94%
    02:00 +16°C° 0 mm 2 mps 737 mmHg 95%
    03:00 +16°C° 0 mm 2 mps 737 mmHg 94%
    04:00 +16°C° 0 mm 2 mps 738 mmHg 94%
    05:00 +15°C° 0 mm 2 mps 738 mmHg 94%
    06:00 +17°C° 0 mm 3 mps 738 mmHg 90%
    07:00 +18°C° 0 mm 3 mps 738 mmHg 86%
    08:00 +20°C° 0 mm 3 mps 739 mmHg 82%
    09:00 +21°C° 0.7 mm 3 mps 739 mmHg 80%
    10:00 +22°C° 0.7 mm 3 mps 739 mmHg 77%
    11:00 +24°C° 0.7 mm 3 mps 739 mmHg 74%
    12:00 +24°C° 1.5 mm 3 mps 740 mmHg 74%
    13:00 +24°C° 1.5 mm 3 mps 740 mmHg 74%
    14:00 +24°C° 1.5 mm 3 mps 740 mmHg 73%
    15:00 +24°C° 0.9 mm 3 mps 740 mmHg 74%
    16:00 +24°C° 0.9 mm 2 mps 741 mmHg 75%
    17:00 +23°C° 0.9 mm 1 mps 741 mmHg 76%
    18:00 +22°C° 0 mm 1 mps 741 mmHg 79%
    19:00 +21°C° 0 mm 1 mps 741 mmHg 83%
    20:00 +20°C° 0 mm 1 mps 742 mmHg 86%
    21:00 +20°C° 0.1 mm 1 mps 742 mmHg 89%
    22:00 +19°C° 0.1 mm 1 mps 742 mmHg 92%
    23:00 +18°C° 0.1 mm 1 mps 743 mmHg 94%
    Show more